Regional Weather Roundup
Issued by NWS Goodland, KS

Home | Current Version | Previous Version | Text Only | Print | Product List | Glossary On
Versions: 1 2 3 4 5 6 7 8 9 10 11 12 13 14 15 16 17 18 19 20 21 22 23 24 25 26 27 28 29 30 31 32 33 34 35 36 37 38 39 40 41 42 43 44 45 46 47 48 49 50
000
ASUS43 KGLD 280608
RWRGLD

GOODLAND FORECAST AREA HOURLY WEATHER ROUNDUP
NATIONAL WEATHER SERVICE GOODLAND KS
1200 AM MDT MON MAY 28 2018

...OFFICIAL OBSERVATIONS...

CITY           SKY/WX    TMP DP  RH WIND       PRES   REMARKS
GOODLAND KS    MOCLDY    67  62  84 NE7       29.90R
HILL CITY KS   CLOUDY    77  60  55 SE13G25   29.89R
IMPERIAL NEB   CLOUDY    63  57  81 NE16      29.91F
MCCOOK NEB     CLOUDY    65  59  81 NE18      29.90F
AKRON CO       MOCLDY    57  55  93 E16G24    29.97R
BURLINGTON CO  PTCLDY    71  58  63 E9        29.91R
LIMON CO       CLEAR     55  46  71 NW3       29.97R
$$

...UNOFFICIAL OBSERVATIONS...

CITY           SKY/WX    TMP DP  RH WIND       PRES   REMARKS
COLBY KS       CLOUDY    72  63  73 NE12G20   29.92R
NORTON KS      CLEAR     75  57  53 SE3       29.91
SHARON SPRINGS   N/A     67  60  79 MISG        N/A
KIT CARSON CO    N/A     71  58  63 MISG        N/A
YUMA CO        FAIR      57  46  67 NE10      29.96R
$$



USA.gov is the U.S. government's official web portal to all federal, state and local government web resources and services.